Погода Илыинский

Погода Илыинский : погода сейчас, прогноз погоды и архив. Всё, что Вы хотите узнать о погоде Илыинский!

Хотите узнать прогноз погоды Илыинский? Тогда Вам сюда: Погода Илыинский

Поиск расширенной информации на нашем сайте:

Другие новости

Новости СМИ2

Главная страница сайта

Новости сайта

03.07.2017

Напоминаем, что на нашем специализированном сайте Метеоцентр.Азия вы можете получить высокодетализированные автоматические прогнозы погоды по пунктам России, СНГ и мира в авиационном формате (включающие направление и скорость ветра, видимость, явления погоды, количество и форму облачности, нижнюю и верхнюю границу облачности).

Рекомендуем: Проверенные лично мной дженерики виагры. Доставка виагры в день заказа.

Погода Илыинский - сегодня

Время (UTC), дата Ветер
(°,м/с) 
Видим.   Явления Облачность Т
(°С)
Тd
(°С)
f(%) Тe
(°С)
Pmin
(гПа)
dP
(гПа)
Po
(мм)
O2
(г/м3)
Тmin Tmax R s Состояние
почвы
09 14.04.18 120 (ЮВ) 1-1{06}  20000 м    8/0 верхняя 
[Ci fib]
+3.4 +1.3 86 +4  1014.2  -0.4  759  302    +4.9       
12 14.04.18 050 (СВ) 1-2{02}  10 км    ясно 
+1.5 -0.3 88 +2  1014  -0.2  759  304           
15 14.04.18 050 (СВ) 1-2{03}  10 км    ясно 
+0 -0.6 96 +1  1013.5  -0.5  758  306           
18 14.04.18 070 (В) 4-6{10}  10 км    ясно 
-0.7 -3.9 79 -3  1011.9  -1.5  757  306           
21 14.04.18 070 (В) 7-7{02}  20000 м    10/6 600 м кучево-дожд., верхняя 
[Cb cap|Ci fib]
-0.9 -4.3 78 -5  1011.2  -0.7  757  306  -1.9      мокрый или
старый снег
10-40% 
09 15.04.18 070 (В) 6-9{10}  20000 м    10/0 верхняя 
[Cs]
-0.5 -7 61 -4  1006.5  -0.7  753  305    +2.4       
12 15.04.18 160 (Ю) 1-2{09}  10 км    ясно 
-2.7 -7.4 70 -2  1007.8  1.3  754  308           
15 15.04.18 тихо ()   10 км    4/0 600 м кучево-дожд. 
[Cb cap]
-2.8 -5.5 82 -3  1007.3  -0.5  754  307           
21 15.04.18 290 (З) 4-6{06}  20000 м    ясно 
+0.7 -4.9 66 -2  1007.3  0.8  754  303  -5.8      мокрый или
старый снег
10-40% 
03 16.04.18 230 (ЮЗ) 5-6{06}  20000 м    ясно 
+4.3 -1.6 65 +2  1009.2  1.8  755  300           
06 16.04.18 220 (ЮЗ) 8-11{13}  20000 м    ясно 
+4.1 +0.1 75 +1  1008.2  -0.9  755  299           
12 16.04.18 140 (ЮВ) 2-5{11}  10 км    ясно 
+2.8 -2 71 +2  1010.7  1.9  756  302           
15 16.04.18 210 (ЮЗ) 6-9{12}  10 км    ясно 
+4.6 +1 77 +2  1010  -0.7  756  299           
18 16.04.18 220 (ЮЗ) 6-9{11}  10 км    ясно 
+5.6 +0.1 68 +3  1010.2  0.2  756  298           
09 17.04.18 200 (Ю) 12-17{18}  20000 м    8/0 верхняя 
[Ci sp]
+6.9 +0.6 64 +3  1011  -0.6  757  297    +9       
18 17.04.18 тихо () {05}  10 км    10/0 средняя, верхняя 
[Ac trans|Ci sp]
+6 +0.7 69 +6  1010.6  -0.5  756  298           
21 17.04.18 200 (Ю) 9-13{18}  20000 м    3/0 верхняя 
[Ci sp]
+6.7 +0.6 65 +4  1010.3  -0.2  756  297  +5.7      мокрый или
старый снег
10-40% 
06 18.04.18 тихо () {05}  20000 м    ясно 
+7.5 +2.6 71 +8  1008.2  -1.1  754  295           
09 18.04.18 240 (ЮЗ) 6-9{12}  20000 м    8/4 600 м кучево-дожд., верхняя 
[Cb cap|Ci fib]
+5.2 +2.8 84 +3  1010  1.8  756  298    +8.6       
12 18.04.18 310 (СЗ) 4-6{09}  10 км    ясно 
+3.8 +2.4 91 +2  1010.6  0.6  756  300           
15 18.04.18 350 (С) 2-3{06}  10 км    ясно 
+3.7 +2 89 +3  1011.3  0.7  757  301           
18 18.04.18 350 (С) 8-2{03}  10 км    10/10 600 м 
+2.9 +1.1 88 -1  1010.7  -0.5  756  301           
21 18.04.18 110 (В) 1-3{04}  20000 м  {ливн. осадки}  10/8 600 м кучево-дожд., верхняя 
[Cb cap|Ci fib]
+2.5 +0.3 85 +3  1011.7  0.9  757  302  +2.5    0.3  мокрый или
старый снег
10-40% 
00 19.04.18 120 (ЮВ) 3-4{05}  20000 м  {ливн. осадки}  8/0 средняя 
[Ac trans]
+6.4 -0.9 60 +5  1012.5  0.9  758  298           
09 19.04.18 110 (В) 5-8{11}  20000 м    10/0 верхняя 
[Ci fib]
+3.6 -2.2 66 +1  1012.3  0.7  758  302    +9.4       
Время (UTC), дата Ветер
(°,м/с) 
Видим.   Явления Облачность Т
(°С)
Тd
(°С)
f(%) Тe
(°С)
Pmin
(гПа)
dP
(гПа)
Po
(мм)
O2
(г/м3)
Тmin Tmax R s Состояние
почвы

Для получения пояснительной информации подведите курсор к названию столбца.

ПОГОДА Илыинский - архив

Всё, что Вы хотите узнать о погоде Илыинский - удобно и подробно!

Выберите нужную дату (начиная с 1 января 2015* года) и нажмите кнопку "Найти".
Будут отображены архивные сводки погоды по пункту Илыинский, начиная с указанной даты.


Отображать данные в формате CSV (для использования в таблицах Excel)


Внимание! Наш архив погоды предназначен исключительно для личного некоммерческого использования в познавательных целях. Если Вам необходимы официальные справки о состоянии погоды (для производственных, юридических, коммерческих и т.п. целей), обращайтесь в органы Росгидромета.

*Примечание: данная дата относится к архиву по метеостанциям СССР (Россия, СНГ, Балтия).
Архив по метеостанциям Зарубежной Европы и Азии (кроме Китая) хранится 10 дней, по другим регионам земного шара (Китай, Африка, Америка, Австралия, Океания) - 1 день.

Илыинский - район местоположения метеостанции


Название, широта, долгота, высота метеостанции:
Илыинский 48°ш. 142.2°д. 18 м над ур. моря [Российская Федерация]

Дополнительная информация

В oтличие oт бoльшинства пoгoдных сайтoв мы публикуем пoдрoбную метеoинфoрмацию в детальнoм прoфессиoнальнoм фoрмате.

Характеристики температуры и влажнoсти вoздуха измеряются на высoте 2 м в тени вдали oт зданий и деревьев.
Скoрoсть ветра измеряется на высoте 10 м (на урoвне рoста челoвека скoрoсть ветра ниже в 1.5-2 раза). Если метеoстанция нахoдится в гoрoде или в лесу, тo скoрoсть ветра занижена на 2-4 м/с пo сравнению с oткрытым местoм. Скoрoсть ветра над акватoриями крупных рек и oзёр, а также на вершинах хoлмoв на 2-5 м/с выше, чем в oбычных услoвиях.
Атмoсфернoе давление в разных тoчках местнoсти мoжет значительнo oтличаться oт давления на метеoстанции, в зависимoсти oт услoвий рельефа (при пoдъёме на 10 м давление пoнижается примернo на 1 мм рт.ст.).